Theta_e
312 311 312 311 311 313 313 313 314 315 316 315 315 315 316 316 318 316 315 315 317 319 320 324 325 324 325 328 329 328 321 319 329 326 331 344 346 344 339 338 338 341 343 338
313 313 315 316 316 315 314 315 315 315 315 315 314 315 315 317 317 316 315 317 319 318 320 322 323 323 326 324 323 327 330 325 327 327 324 326 334 345 347 344 345 345 344 344
313 314 315 315 314 315 314 314 315 315 315 314 314 314 314 317 317 316 315 315 317 318 318 321 321 321 321 325 326 326 325 325 325 327 328 324 324 326 328 332 346 338 334 339
313 314 315 314 314 314 313 314 315 314 314 315 315 315 314 317 316 316 316 315 315 316 317 320 321 322 322 322 322 320 327 326 326 328 326 329 324 329 330 329 329 329 329 330
313 313 313 314 314 314 313 314 314 314 313 313 314 314 314 315 315 315 314 316 314 316 318 319 320 322 323 323 322 323 324 324 326 327 326 325 326 327 323 328 329 329 329 328
312 313 313 313 314 314 314 313 313 312 311 313 313 314 314 314 315 315 316 315 316 315 317 319 320 321 320 320 320 324 323 323 325 324 324 325 328 328 327 326 324 323 323 325
315 315 315 314 313 313 312 311 311 312 313 315 313 315 316 317 317 317 317 315 315 316 317 318 316 317 319 319 320 320 321 321 321 322 322 323 324 324 328 329 329 329 329 327
316 316 315 315 316 314 313 311 314 318 319 318 317 321 318 319 316 317 317 315 315 316 317 317 317 317 318 319 319 319 322 321 321 321 321 323 323 324 323 323 324 325 332 334
315 316 316 316 317 316 315 315 314 318 321 321 316 315 315 318 318 318 316 316 315 314 315 314 314 316 316 317 319 320 321 320 321 320 321 320 320 323 322 322 323 323 324 326
315 316 316 315 315 316 315 316 317 321 323 323 319 317 315 318 318 317 316 313 313 313 313 313 313 315 316 316 316 316 320 320 319 319 319 319 320 320 322 323 325 322 322 324
316 314 315 316 316 315 315 316 318 320 319 319 318 315 316 318 317 317 316 315 315 314 313 313 313 315 317 317 318 318 317 319 319 319 319 321 322 321 319 318 317 319 321 322
316 317 315 315 314 315 318 318 320 323 323 322 320 317 316 317 315 316 316 315 315 314 313 312 312 314 316 317 318 317 318 318 317 318 319 319 318 317 317 317 316 316 320 322
315 315 317 317 314 318 319 319 319 320 320 320 323 320 317 317 317 317 316 316 315 315 314 314 316 313 314 316 317 317 317 317 316 316 317 317 317 318 318 317 318 315 314 315
317 317 317 320 318 315 318 318 317 319 321 318 321 319 316 317 317 316 316 316 315 314 315 315 316 316 313 316 317 317 317 317 317 317 317 317 317 317 316 317 316 317 316 314
314 317 317 317 317 316 313 313 316 319 319 320 316 317 317 316 317 315 314 315 316 315 315 315 315 315 316 315 318 318 318 317 317 317 317 319 319 319 318 316 316 315 315 317
315 316 317 317 315 315 314 313 314 315 317 318 317 318 315 317 316 317 318 317 315 316 316 318 316 319 318 317 316 316 315 315 315 316 317 317 318 318 318 318 318 316 316 315
309 313 314 314 312 314 315 316 318 318 316 317 320 320 317 318 317 316 315 317 318 318 317 315 316 317 316 317 317 316 316 316 318 318 317 316 316 316 316 316 316 317 316 315
308 310 311 311 314 314 313 316 317 318 319 319 318 319 319 317 316 316 316 316 316 314 314 313 312 313 315 315 316 315 317 316 315 315 314 314 314 314 314 314 314 315 316 315
313 312 310 314 311 314 313 318 318 319 319 317 317 316 315 314 313 313 315 314 314 313 312 312 313 314 314 314 314 315 316 314 314 314 314 313 313 313 313 312 312 312 313 314
316 314 311 311 313 315 318 317 316 317 317 315 315 313 313 311 313 312 311 311 311 310 311 311 312 313 313 314 314 313 315 314 314 313 313 312 312 311 311 311 312 312 312 312
316 311 310 314 315 314 317 315 317 320 319 315 313 313 312 312 311 310 309 308 308 308 308 308 309 308 309 311 312 313 313 312 312 311 311 311 310 311 312 312 312 312 313 313
317 316 317 317 317 316 316 316 318 315 311 311 311 310 311 310 309 307 306 305 304 304 305 306 306 306 307 308 308 309 309 309 309 310 310 310 310 311 312 312 313 314 314 315
316 316 312 316 313 312 311 313 310 309 309 309 309 309 309 307 306 306 304 303 303 303 304 304 305 305 305 305 305 306 307 307 308 308 309 310 311 311 312 312 312 313 314 316
313 311 313 311 313 307 307 306 307 306 306 307 307 307 307 306 306 304 303 302 302 301 302 303 303 304 304 304 305 305 306 307 308 309 310 310 310 311 312 313 313 312 313 315
311 310 308 309 309 305 308 306 305 304 306 307 307 306 307 304 305 303 303 301 300 300 301 301 301 301 302 302 303 303 305 306 309 309 309 310 311 311 311 310 311 313 313 314
309 308 310 308 306 305 306 305 304 306 305 305 305 306 305 305 304 302 302 299 299 299 299 300 300 301 301 302 303 304 305 307 308 309 310 311 312 313 314 314 312 312 315 317
Wind_Speed
9 4 6 13 12 13 14 14 16 12 10 8 8 9 14 10 4 5 6 8 8 9 7 23 26 24 19 13 11 11 12 8 14 19 10 14 17 19 19 21 26 23 23 29
6 9 13 17 11 10 12 7 8 14 14 15 14 14 9 4 4 5 7 6 10 8 10 15 25 20 15 14 11 8 7 8 7 14 29 24 16 17 23 21 23 22 25 23
8 10 12 12 10 8 6 7 7 10 15 17 14 12 9 5 2 6 10 7 9 15 15 14 16 25 21 17 15 11 8 8 9 12 10 19 13 14 22 23 21 20 15 16
9 6 10 11 13 4 4 8 14 13 8 5 5 10 8 7 7 10 16 18 10 10 13 15 14 18 25 22 16 13 13 9 8 10 8 9 19 16 13 16 15 17 13 12
9 11 11 14 8 6 8 11 8 6 10 6 10 4 8 6 10 16 11 18 13 14 16 16 13 21 25 20 16 14 12 7 7 5 6 8 10 7 14 14 15 12 15 18
12 13 11 10 17 8 7 6 6 5 4 10 13 6 14 13 12 17 23 13 18 10 11 16 21 25 23 20 19 18 13 11 12 9 8 9 11 11 12 13 14 21 19 16
14 15 15 19 18 12 7 2 5 4 4 12 14 12 11 8 11 14 22 12 10 15 16 15 11 11 22 23 22 22 22 18 13 13 12 12 13 13 8 11 12 16 19 18
10 11 10 14 9 9 8 9 6 4 5 5 11 5 7 9 12 18 5 9 10 15 15 14 13 15 20 25 28 26 26 22 19 18 15 13 14 13 13 15 15 15 15 16
7 10 8 14 2 3 5 8 4 5 1 3 4 12 9 6 8 21 3 8 9 10 11 11 9 16 17 17 20 25 29 28 27 23 19 20 18 18 18 18 18 18 21 20
6 12 3 9 10 4 7 9 3 3 5 6 6 5 5 2 4 17 6 3 6 7 8 7 7 12 22 22 23 26 26 28 27 24 24 22 22 19 20 17 15 17 20 21
5 5 7 4 3 5 5 6 3 4 4 5 6 6 2 1 4 7 6 11 4 6 6 5 5 12 18 21 20 25 26 23 21 22 23 21 19 15 16 17 20 19 22 23
4 3 7 8 9 13 2 4 4 3 6 3 2 12 6 3 6 3 1 5 12 15 9 6 8 10 11 13 17 19 21 23 23 20 21 22 23 21 21 21 20 18 21 25
5 3 4 6 5 4 5 4 6 4 4 6 4 5 9 1 4 6 5 7 10 9 12 5 13 7 8 16 17 18 19 22 24 26 26 26 25 24 26 23 20 20 20 25
7 4 5 6 11 12 3 4 7 7 4 4 6 10 15 17 9 9 9 12 6 5 9 5 6 18 14 13 12 13 14 15 19 20 21 24 27 28 25 23 21 21 21 23
4 1 3 9 14 18 16 15 13 17 14 8 15 14 12 7 9 14 11 8 7 5 20 7 9 14 13 15 3 5 4 7 8 8 10 11 11 16 22 24 25 25 25 23
2 3 2 5 16 18 21 13 12 17 16 21 16 19 4 7 8 9 11 14 19 13 8 2 5 6 6 13 8 8 15 18 16 15 16 16 15 17 21 25 28 27 26 26
5 4 3 5 7 11 7 4 10 14 10 3 5 4 5 4 7 7 10 13 17 11 4 7 5 5 10 18 16 13 22 22 15 12 12 15 17 20 23 26 27 31 33 31
7 4 2 3 3 3 6 5 4 12 3 11 1 5 1 4 5 7 2 7 11 14 12 10 7 8 17 20 22 26 20 17 15 16 18 20 21 24 28 30 31 30 26 27
3 2 1 2 2 9 11 5 4 3 6 12 7 7 7 10 9 7 7 3 5 17 10 9 19 21 22 23 25 28 26 20 18 18 19 21 23 24 26 29 33 35 34 34
2 6 3 1 1 3 0 8 9 8 3 13 15 11 10 9 5 5 11 12 13 13 16 16 21 22 21 25 29 24 17 14 14 16 22 25 26 29 34 34 32 31 33 36
1 1 3 4 4 6 5 9 12 4 5 10 9 10 11 7 6 11 13 15 14 18 21 24 21 18 22 22 20 15 15 14 19 24 28 29 30 33 33 32 32 32 34 34
2 2 2 1 2 3 4 3 4 5 6 8 10 11 13 13 14 13 14 16 19 21 23 29 24 23 26 27 26 23 17 22 27 28 30 31 31 30 30 32 31 32 32 32
3 3 2 0 4 7 6 8 7 11 10 11 11 14 14 16 18 15 15 17 18 22 25 28 27 29 29 29 28 28 30 30 30 32 32 29 27 32 36 33 33 31 31 28
5 6 3 5 2 13 8 9 11 13 13 15 14 12 16 17 20 18 19 19 17 18 20 28 26 22 23 26 27 29 30 30 30 31 26 31 35 33 32 33 35 29 26 23
3 4 6 6 4 16 2 14 13 18 17 16 15 18 17 21 18 18 18 18 19 19 24 25 23 23 26 30 31 32 30 32 26 31 35 35 36 36 38 42 34 29 29 29
2 1 1 4 10 10 14 15 17 16 18 20 21 21 20 18 18 21 20 16 17 16 25 23 26 27 30 29 29 29 30 29 30 32 32 32 33 37 38 36 31 35 35 30
Wind_Direction
271 180 237 234 234 235 249 262 274 293 316 328 291 295 252 221 169 231 247 242 240 184 145 138 147 155 157 159 158 183 189 204 208 194 238 277 231 246 223 229 237 239 245 240
258 251 234 244 254 264 284 307 309 315 318 308 298 287 279 220 204 236 258 241 164 161 133 139 136 141 147 154 168 176 183 196 225 203 188 223 261 247 240 224 222 227 238 246
245 273 288 280 279 265 290 301 295 270 280 284 292 293 281 251 275 292 273 224 210 179 163 158 150 155 163 155 150 165 188 208 229 240 209 176 196 264 264 238 211 221 242 246
261 285 302 298 293 302 282 277 283 289 306 256 323 287 293 300 268 250 253 250 219 191 172 164 158 162 167 170 171 172 175 204 222 216 222 227 190 186 241 279 238 217 221 254
281 299 303 296 264 267 267 271 275 326 315 321 289 302 282 283 280 279 267 245 214 196 172 170 155 151 163 161 161 173 180 184 211 245 260 266 266 246 228 263 300 309 244 263
267 271 279 264 283 265 291 316 329 323 304 282 271 246 278 274 274 273 276 264 225 148 125 132 138 149 152 166 178 178 182 206 204 228 236 236 246 241 254 264 276 284 283 258
247 254 250 247 252 248 220 334 308 298 272 254 258 258 245 307 296 284 274 237 137 129 126 133 143 152 169 186 186 195 200 214 230 239 240 246 246 256 239 265 263 272 279 278
260 271 255 280 297 212 226 192 214 251 234 270 310 248 238 255 300 306 326 110 117 126 134 145 161 170 182 194 199 204 197 204 217 225 246 253 267 266 281 285 280 278 285 291
292 286 324 309 332 7 306 257 266 305 28 337 270 283 289 285 3 323 100 127 133 141 152 166 169 161 167 180 191 204 203 211 212 215 228 242 257 252 259 267 274 285 293 299
278 297 271 308 318 228 174 224 291 98 226 231 228 252 250 303 310 217 316 102 113 116 121 134 151 176 192 199 212 215 201 203 210 216 225 236 238 249 261 266 271 281 285 286
13 272 291 342 280 244 293 269 306 307 251 201 274 249 136 9 14 84 96 278 127 147 157 176 220 214 211 221 217 207 212 214 217 226 231 223 223 227 248 263 274 287 292 288
212 248 270 265 268 284 192 190 86 261 277 307 319 262 358 344 322 69 181 27 353 356 332 267 214 210 208 204 203 198 195 199 207 211 211 216 229 238 243 249 263 277 291 294
346 296 324 329 325 74 102 163 168 245 243 215 244 269 323 164 91 59 41 329 305 345 328 6 352 285 231 227 217 207 208 212 217 221 226 231 235 226 222 229 233 252 278 282
91 81 282 255 293 315 255 184 217 150 245 226 233 276 285 296 218 251 227 210 247 248 294 347 331 286 276 230 225 220 219 223 216 215 221 225 227 227 225 227 236 240 247 261
90 347 256 282 277 280 287 292 248 228 230 235 257 257 256 305 302 239 233 204 199 213 262 251 284 264 311 283 67 16 343 332 326 312 308 291 262 240 234 234 237 247 254 253
335 225 175 270 267 277 283 290 301 286 233 240 254 259 337 9 339 2 349 317 248 233 246 262 246 121 235 304 320 311 303 299 294 286 285 278 279 290 269 256 255 247 249 256
247 211 249 276 305 325 302 307 348 340 276 329 290 329 358 7 347 325 341 10 10 319 318 264 282 224 218 239 258 269 286 282 273 265 263 276 280 280 282 281 274 262 255 252
235 256 244 282 340 264 205 85 104 339 340 66 311 30 224 261 253 275 6 56 339 323 326 327 312 312 318 310 298 288 257 246 243 248 256 261 263 265 267 269 270 271 262 259
92 210 169 165 236 278 300 33 343 342 31 17 17 349 355 347 329 314 71 30 295 295 298 303 305 304 303 300 300 297 277 243 239 242 251 256 260 262 262 260 260 261 260 259
35 46 121 353 227 275 142 349 328 296 193 2 349 355 348 343 332 295 316 312 296 283 278 285 288 284 283 281 284 281 260 250 252 258 264 267 266 264 264 262 260 257 256 257
139 24 161 238 253 280 9 341 328 4 336 312 341 346 340 326 289 305 316 328 335 328 317 317 318 313 315 315 321 301 288 273 280 278 273 266 264 262 256 253 255 255 251 250
171 186 166 209 255 296 349 351 357 329 324 3 350 332 317 309 306 316 319 318 316 310 307 305 303 301 302 302 301 294 284 290 284 272 268 265 264 262 259 257 254 250 247 245
39 31 241 40 252 47 346 60 1 2 355 344 328 318 312 313 312 314 321 312 305 301 296 298 296 294 291 292 291 286 284 287 281 279 275 265 261 261 260 249 248 244 242 232
346 46 23 350 81 2 329 14 0 348 326 313 305 321 310 318 308 314 313 303 299 296 294 293 291 291 291 294 293 289 293 293 291 284 275 274 275 265 262 255 236 227 234 227
10 353 343 267 335 342 318 347 333 318 312 308 309 313 311 304 302 301 299 295 294 293 296 297 293 294 293 292 290 289 290 288 290 285 282 276 264 255 246 247 239 233 226 222
345 70 306 265 323 296 290 310 306 307 313 311 311 309 308 317 308 297 286 293 294 295 296 293 292 289 288 290 292 295 291 289 283 283 284 283 280 276 260 226 213 220 228 224